Regional Weather Roundup
Issued by NWS

Home | Current Version | Previous Version | Graphics & Text | Print | Product List | Glossary On
Versions: 1 2 3 4 5 6 7 8 9 10 11 12 13 14 15 16 17 18 19 20 21 22 23 24 25 26 27 28 29 30 31 32 33 34 35 36 37 38 39 40 41 42 43 44 45 46 47 48 49 50
000
ASUS43 KFSD 171210
RWRSD

WEATHER ROUNDUP FOR SOUTH DAKOTA
NATIONAL WEATHER SERVICE SIOUX FALLS SD
700 AM CDT TUE OCT 17 2017

NOTE: "FAIR" INDICATES FEW OR NO CLOUDS BELOW 12,000 FEET WITH NO
SIGNIFICANT WEATHER AND/OR OBSTRUCTIONS TO VISIBILITY.


SDZ001>005-009-010-012>017-171300-
NORTHWEST AND NORTH CENTRAL SOUTH DAKOTA

CITY           SKY/WX    TMP DP  RH WIND       PRES   REMARKS
BUFFALO          N/A     46  25  43 W10       29.95R
FAITH            N/A     47  28  47 SW10      30.00S
MOBRIDGE       CLEAR     40  33  76 SE7       29.96F
$$

SDZ012>016-024>037-041>051-057-063-072>074-171300-
SOUTHWEST AND SOUTH CENTRAL SOUTH DAKOTA

CITY           SKY/WX    TMP DP  RH WIND       PRES   REMARKS
RAPID CTY ARPT CLEAR     47  24  40 NW12      30.06S
PIERRE         CLEAR     43  34  70 SW8       30.02S
CUSTER         CLOUDY    36  20  52 NW5       30.16F
ELLSWORTH AFB  CLEAR     43  24  47 W7        30.05S
PHILIP         CLEAR     42  34  73 NW9       30.04S
PINE RIDGE     CLOUDY    28  26  92 CALM      30.11S
SPEARFISH      FAIR      48  21  34 CALM      30.08S
WINNER         FAIR      43  34  70 SW8       30.06S
$$

SDZ004>011-016>023-039-040-171300-
NORTHEAST SOUTH DAKOTA

CITY           SKY/WX    TMP DP  RH WIND       PRES   REMARKS
ABERDEEN       CLOUDY    31  30  96 CALM      30.00S
WATERTOWN      CLOUDY    36  36 100 CALM      30.01R
BROOKINGS      CLEAR     37  34  89 CALM      30.03R
SISSETON         N/A     44  37  76 SW5       29.96F
$$

SDZ017-020-022-023-036>040-048>070-171300-
SOUTHEAST SOUTH DAKOTA

CITY           SKY/WX    TMP DP  RH WIND       PRES   REMARKS
SIOUX FALLS    CLEAR     38  36  92 CALM      30.04R
HURON          CLEAR     37  36  96 SE3       30.02R
CHAMBERLAIN    CLEAR     40  39  96 CALM      30.05S
MITCHELL       CLEAR     39  37  92 S5        30.03F
YANKTON        CLEAR     38  35  89 W3        30.05S
$$

ABBREVIATIONS USED IN REMARKS
   TC - TEMPERATURE IN CELSIUS
  WCI - WIND CHILL INDEX
   HX - HEAT INDEX
  VSB - VISIBILITY




USA.gov is the U.S. government's official web portal to all federal, state and local government web resources and services.